Regional Weather Roundup
Issued by NWS

Home | Current Version | Previous Version | Graphics & Text | Print | Product List | Glossary Off
Versions: 1 2 3 4 5 6 7 8 9 10 11 12 13 14 15 16 17 18 19 20 21 22 23 24 25 26 27 28 29 30 31 32 33 34 35 36 37 38 39 40 41 42 43 44 45 46 47 48 49 50

000
ASUS43 KFSD 161910
RWRSD

WEATHER ROUNDUP FOR SOUTH DAKOTA
NATIONAL WEATHER SERVICE SIOUX FALLS SD
200 PM CDT WED APR 16 2014

NOTE: "FAIR" INDICATES FEW OR NO CLOUDS BELOW 12,000 FEET WITH NO
SIGNIFICANT WEATHER AND/OR OBSTRUCTIONS TO VISIBILITY.


SDZ001>005-009-010-012>017-162000-
NORTHWEST AND NORTH CENTRAL SOUTH DAKOTA

CITY           SKY/WX    TMP DP  RH WIND       PRES   REMARKS
BUFFALO          N/A     39  23  52 NE16      29.95R
FAITH            N/A     33  23  66 NE17      30.02R WCI  22
MOBRIDGE       CLOUDY    33  23  66 N17G24    30.01R WCI  22
$$

SDZ012>016-024>037-041>051-057-063-072>074-162000-
SOUTHWEST AND SOUTH CENTRAL SOUTH DAKOTA

CITY           SKY/WX    TMP DP  RH WIND       PRES   REMARKS
RAPID CTY ARPT PTSUNNY   44  28  53 N22G28    29.97R
PIERRE         CLOUDY    35  28  75 N21G28    29.97R WCI  24
CUSTER         PTSUNNY   41  22  46 N8        29.91R
ELLSWORTH AFB  PTSUNNY   42  27  55 N17G24    29.97R
PHILIP         CLOUDY    35  28  75 N13       30.00R WCI  26
PINE RIDGE     CLOUDY    38  32  79 N16G23    29.96R
SPEARFISH      PTSUNNY   39  28  65 N10G16    29.98R
WINNER         CLOUDY    34  28  79 NW25      29.93R WCI  21
$$

SDZ004>011-016>023-039-040-162000-
NORTHEAST SOUTH DAKOTA

CITY           SKY/WX    TMP DP  RH WIND       PRES   REMARKS
ABERDEEN       CLOUDY    31  25  78 NE22G31   29.98R WCI  18
WATERTOWN      LGT SNOW  28  25  88 NE23G31   29.85R VSB 3/4 WCI  14
SISSETON         N/A     30  26  85 E22G30    29.95R WCI  17
$$

SDZ017-020-022-023-036>040-048>070-162000-
SOUTHEAST SOUTH DAKOTA

CITY           SKY/WX    TMP DP  RH WIND       PRES   REMARKS
SIOUX FALLS    LGT RAIN  43  38  82 N16       29.68R
HURON          CLOUDY    32  26  78 N22G31    29.88R WCI  19
CHAMBERLAIN      N/A     33  28  81 N16G28    29.92R WCI  23
MITCHELL       CLOUDY    34  30  85 N25G32    29.83R WCI  21
YANKTON        MOSUNNY  N/A N/A N/A NW32G41   29.66R
$$

ABBREVIATIONS USED IN REMARKS
   TC - TEMPERATURE IN CELSIUS
  WCI - WIND CHILL INDEX
   HX - HEAT INDEX
  VSB - VISIBILITY




USA.gov is the U.S. government's official web portal to all federal, state and local government web resources and services.